sat.trackr.live / text

‹ back to catalog

STARLINK-35817

NORAD 66357 · 2025-254K

PAYLOAD ACTIVE UNKNOWN

§ Identity

Operator
Country
US
Launch date
2025-11-06
Launch site
AFWTR
Launch vehicle
Mass (kg)
RCS (m²)

Purposes: comms

External: N2YO · Heavens-Above · Gunter

§ Orbital elements

Epoch: 2026-05-24T15:29:29.700960Z

Period
94.11 min
Inclination
53.1608°
Eccentricity
0.0000838
Mean motion
15.30197676 rev/d
Perigee alt
474.6 km
Apogee alt
475.8 km
Semi-major
6,853.4 km
B*
3.7738e-4
RAAN
239.7311°
Arg perigee
88.5876°
Mean anomaly
271.5221°
Rev number
3,060

§ Raw data

STARLINK-358171 66357U 25254K   26144.64548265  .00010834  00000+0  37738-3 0  99982 66357  53.1608 239.7311 0000838  88.5876 271.5221 15.30197676 30603

JSON: /api/v1/satellites/66357 · /tle

For live sub-satellite position, see the globe view (requires WebGL).

§ Visibility from observer

Set your observer location to see the next 7 days of passes ≥ 10°. The values pass through the URL so the page stays shareable.

No JS? Fill the form by hand. The geolocation button needs JavaScript.